Back to catalog

STARLINK-11255

AliveCommunicationsVLEO
NORAD 60730·PAYLOAD·🇺🇸 United States

Launched Aug 28, 2024 from Cape Canaveral Space Force Station

Loading…

Next Passes (next 24 hours)

TLE

FreshSource: CelesTrak SupGP

Epoch: Sep 14, 2026, 15:18 UTC

1 60730C 24152L   26257.63798611 -.00011874  00000+0 -97825-4 0  2577
2 60730  53.1571 264.5570 0001300  82.0587 325.6501 15.69711221    11

Track STARLINK-11255 in real time with AllMySat

Download on the App Store